Printer-friendly version
Follow the MPC on Twitter Follow the MPC on Facebook The MPC blog
Minor Planet Center

MPEC 2005-U83 : 2002 DP3

The following Minor Planet Electronic Circular may be linked-to from your own Web pages, but must not otherwise be redistributed electronically.

A form allowing access to any MPEC is at the bottom of this page.


Read MPEC 2005-U82 Read MPEC 2005-U84


M.P.E.C. 2005-U83                                Issued 2005 Oct. 28, 18:26 UT

     The Minor Planet Electronic Circulars contain information on unusual
         minor planets and routine data on comets.  They are published
   on behalf of Commission 20 of the International Astronomical Union by the
          Minor Planet Center, Smithsonian Astrophysical Observatory,
                          Cambridge, MA 02138, U.S.A.

                  Supported in part by the Brinson Foundation
                  Supported in part by the TABASGO Foundation
             Prepared using the Tamkin Foundation Computer Network

                              MPC@CFA.HARVARD.EDU
          URL http://cfa-www.harvard.edu/iau/mpc.html  ISSN 1523-6714

                                   2002 DP3

                           Revision to MPEC 2002-G34

Additional Observations:
     K02D03P  C2003 05 04.99948 15 26 49.85 -14 18 34.1          18.0 R EU083246
     K02D03P  C2003 05 05.00045 15 26 49.78 -14 18 33.1                 EU083246
     K02D03P  C2003 05 05.00155 15 26 49.74 -14 18 33.4                 EU083246
     K02D03P  C2003 05 05.00255 15 26 49.71 -14 18 33.0                 EU083246
     K02D03P  C2003 05 05.00481 15 26 49.60 -14 18 32.1                 EU083246
     K02D03P  C2003 05 05.00591 15 26 49.55 -14 18 31.8                 EU083246
     K02D03P  C2003 05 05.00791 15 26 49.43 -14 18 31.3                 EU083246
     K02D03P  C2003 05 05.00899 15 26 49.42 -14 18 30.8                 EU083246
     K02D03P  C2005 10 27.49034 08 27 35.74 +21 13 04.9          19.3 V EU083G96
     K02D03P  C2005 10 27.49684 08 27 36.97 +21 13 06.3          19.2 V EU083G96
     K02D03P  C2005 10 27.50351 08 27 38.23 +21 13 07.9          19.2 V EU083G96
     K02D03P  C2005 10 27.51031 08 27 39.52 +21 13 09.3          19.2 V EU083G96
     K02D03P  C2005 10 28.45037 08 30 39.31 +21 16 31.0          19.0 V EU083G96
     K02D03P  C2005 10 28.45728 08 30 40.60 +21 16 32.4          19.1 V EU083G96
     K02D03P  C2005 10 28.46402 08 30 41.90 +21 16 33.9          19.2 V EU083G96
     K02D03P  C2005 10 28.47075 08 30 43.16 +21 16 35.6          19.1 V EU083G96

Observer details:
G96 Mt. Lemmon Survey.  Observer E. J. Christensen.  Measurers E. C. Beshore,
    E. J. Christensen, G. J. Garradd, A. D. Grauer, R. E. Hill, R. A. Kowalski,
    S. M. Larson, R. H. McNaught.  1.5-m reflector + CCD.
246 Klet Observatory-KLENOT.  Observers J. Ticha, M. Tichy, M. Kocer, Z.
    Moravec, P. Jelinek.  1.06-m KLENOT telescope + CCD.

Orbital elements:
2002 DP3
Epoch 2005 Aug. 18.0 TT = JDT 2453600.5                 MPC
M 346.77035              (2000.0)            P               Q
n   0.23752711     Peri.  355.14383     +0.45532049     -0.87343727
a   2.5822241      Node    67.68208     +0.82301376     +0.33896498
e   0.4965628      Incl.   10.75301     +0.33960508     +0.34958557
P   4.15           H   16.2           G   0.15           U   3
Residuals in seconds of arc
020221 644  0.7-  1.2+    020223 649  1.1-  1.4+    020320 644 (2.6+  2.5-)
020221 644  0.4-  1.5+    020223 649  0.1+  1.4+    020320 704 (3.7+  3.0-)
020221 644  1.0-  1.1+    020303 649  0.9+  0.7-    020320 644 (2.7+  2.7-)
020222 046  0.4-  1.7+    020303 649  0.6+  0.8-    020320 644 (2.9+  3.0-)
020222 046  0.9-  0.2-    020306 704  0.7+  0.1+    020427 608 (7.7+  0.7+)
020222 046 (0.6-  2.2+)   020306 704  0.6+  1.1-    030504 246  0.6-  1.4-
020222 046  0.7-  1.6+    020306 704  0.8-  0.9-    030505 246  0.8-  0.5-
020222 557  0.8-  0.7+    020310 113  1.4+  0.7-    030505 246  0.5-  1.0-
020222 557  0.4-  0.8+    020310 113  0.8+  1.0-    030505 246  0.2-  0.7-
020222 557  0.6-  0.9+    020310 113 (2.1+  3.5-)   030505 246  0.0   0.1-
020222 448  0.1+  1.2-    020311 118  1.5+  1.1-    030505 246  0.2+  0.1+
020222 448  0.3-  1.0-    020311 118  1.7+  1.1-    030505 246  0.0   0.3+
020222 448  0.5-  0.6+    020311 113 (0.6-  8.6-)   030505 246  0.7+  0.7+
020222 448  0.8-  0.8-    020311 113 (0.1+  3.9-)   051027 G96  0.2+  0.5+
020222 644  0.3-  1.1+    020311 113 (1.8+  3.6-)   051027 G96  0.2+  0.4+
020222 644  0.5-  1.5+    020312 118  0.9+  0.6-    051027 G96  0.3+  0.5+
020222 644  0.4-  1.4+    020312 118  1.4+  1.4-    051027 G96  0.5+  0.4+
020223 448  0.6-  1.4-    020312 926  2.0+  0.4-    051028 G96  0.5-  0.7-
020223 448  0.6-  0.6-    020312 926  0.9+  0.6-    051028 G96  0.6-  0.9-
020223 448  1.0-  1.5-    020320 704 (2.8+  4.6-)   051028 G96  0.0   0.9-
020223 649  0.0   1.6+    020320 704 (3.2+  3.7-)   051028 G96  0.0   0.7-

Ephemeris:
2002 DP3                 a,e,i = 2.58, 0.50, 11                  q = 1.3000
Date    TT    R. A. (2000) Decl.     Delta      r     Elong.  Phase     V
2005 10 27    08 26.02   +21 11.3    0.854    1.309    89.9    49.4    18.3
2005 11 06    08 56.80   +21 46.8    0.828    1.325    93.1    48.3    18.2
2005 11 16    09 24.55   +22 25.0    0.804    1.350    97.1    46.6    18.1
2005 11 26    09 48.73   +23 12.9    0.782    1.381   102.1    44.3    18.1
2005 12 06    10 08.66   +24 17.5    0.761    1.419   108.0    41.3    18.0
2005 12 16    10 23.75   +25 43.6    0.743    1.462   114.9    37.6    17.9
2005 12 26    10 33.39   +27 32.6    0.730    1.510   122.9    33.1    17.8
2006 01 05    10 37.01   +29 40.4    0.723    1.561   131.8    28.0    17.7
2006 01 15    10 34.52   +31 55.0    0.728    1.616   141.1    22.5    17.6
2006 01 25    10 26.54   +33 57.9    0.747    1.673   149.9    17.2    17.6
2006 02 04    10 14.75   +35 29.2    0.784    1.732   156.0    13.4    17.6
2006 02 14    10 01.75   +36 14.5    0.841    1.791   156.8    12.6    17.8
2006 02 24    09 50.15   +36 12.1    0.919    1.852   152.1    14.5    18.2
2006 03 06    09 41.77   +35 29.3    1.016    1.913   144.6    17.5    18.6
2006 03 16    09 37.39   +34 17.3    1.131    1.974   136.5    20.3    19.0
2006 03 26    09 36.87   +32 47.1    1.261    2.035   128.3    22.6    19.3
2006 04 05    09 39.70   +31 05.9    1.403    2.096   120.5    24.3    19.7
2006 04 15    09 45.25   +29 18.6    1.557    2.156   113.0    25.4    20.0
2006 04 25    09 52.88   +27 28.3    1.719    2.216   105.9    25.9    20.3
2006 05 05    10 02.09   +25 36.3    1.887    2.275    99.1    26.0    20.5
2006 05 15    10 12.48   +23 43.5    2.059    2.333    92.5    25.6    20.8
2006 05 25    10 23.72   +21 50.5    2.234    2.391    86.2    25.0    21.0
2006 06 04    10 35.59   +19 57.6    2.409    2.447    80.0    24.1    21.2
2006 06 14    10 47.91   +18 04.9    2.584    2.502    74.0    23.0    21.3
2006 06 24    11 00.54   +16 12.8    2.756    2.556    68.1    21.6    21.5
2006 07 04    11 13.40   +14 21.4    2.924    2.609    62.2    20.2    21.6

Kyle E. Smalley              (C) Copyright 2005 MPC           M.P.E.C. 2005-U83

Read MPEC 2005-U82 Read MPEC 2005-U84


MPEC number:

Enter an MPEC number in one of the following forms:

  • 1997-B01 (the full form)
  • J97B01 (the packed version of the full form)
  • B01 (the abbreviated form)

Valid HTML 4.01!